Location: Limoges
(45.8354°N, 1.2645°E)
Time: 12:42:34
(UTC+01:00)

Tiros 1 despin weight - All Passes

Search period start: 22 February 2024 00:00
Search period end: 03 March 2024 00:00
Orbit: 581 x 625 km, 48.2° (Epoch: 21 February)

Date Brightness Start Highest point End Pass type
(mag) Time Alt. Az. Time Alt. Az. Time Alt. Az.
22 Feb - 11:06:20 10° S 11:09:08 17° SE 11:11:56 10° E daylight
22 Feb - 12:45:27 10° SW 12:49:45 64° SSE 12:54:03 10° ENE daylight
22 Feb - 14:26:41 10° W 14:31:01 65° N 14:35:21 10° ENE daylight
22 Feb - 16:08:05 10° WNW 16:12:27 79° NNE 16:16:51 10° ESE daylight
22 Feb - 17:49:26 10° W 17:53:29 38° SSW 17:57:32 10° SE daylight
23 Feb - 11:16:42 10° SSW 11:20:24 28° SE 11:24:06 10° E daylight
23 Feb - 12:56:55 10° WSW 13:01:16 88° SSE 13:05:38 10° ENE daylight
23 Feb - 14:38:21 10° W 14:42:39 63° N 14:46:59 10° E daylight
23 Feb - 16:19:39 10° WNW 16:24:01 80° SSW 16:28:24 10° ESE daylight
23 Feb - 18:01:19 10° W 18:04:49 24° SW 18:08:20 10° SSE daylight
24 Feb - 11:27:37 10° SW 11:31:45 43° SSE 11:35:53 10° ENE daylight
24 Feb - 13:08:30 10° W 13:12:51 74° NNW 13:17:12 10° ENE daylight
24 Feb - 14:49:57 10° WNW 14:54:18 67° N 14:58:38 10° E daylight
24 Feb - 16:31:14 10° WNW 16:35:30 56° SSW 16:39:48 10° SE daylight
24 Feb - 18:13:42 10° WSW 18:16:02 14° SW 18:18:23 10° SSW daylight
25 Feb - 09:59:38 10° S 10:02:32 18° SE 10:05:27 10° E daylight
25 Feb - 11:38:52 10° WSW 11:43:11 66° SSE 11:47:29 10° ENE daylight
25 Feb - 13:20:08 10° W 13:24:27 65° N 13:28:47 10° ENE daylight
25 Feb - 15:01:32 10° WNW 15:05:53 80° NNE 15:10:16 10° ESE daylight
25 Feb - 16:42:54 10° W 16:46:54 36° SSW 16:50:55 10° SSE daylight
26 Feb - 10:10:02 10° SSW 10:13:48 28° SE 10:17:33 10° E daylight
26 Feb - 11:50:19 10° WSW 11:54:41 90° SSE 11:59:03 10° ENE daylight
26 Feb - 13:31:46 10° W 13:36:05 63° N 13:40:24 10° E daylight
26 Feb - 15:13:05 10° WNW 15:17:25 79° SSW 15:21:47 10° ESE daylight
26 Feb - 16:54:46 10° W 16:58:12 23° SW 17:01:38 10° SSE daylight
27 Feb - 08:44:03 10° SE 08:44:45 10° SE 08:45:26 10° SE daylight
27 Feb - 10:20:58 10° SW 10:25:08 45° SSE 10:29:17 10° ENE daylight
27 Feb - 12:01:53 10° W 12:06:14 73° NNW 12:10:35 10° ENE daylight
27 Feb - 13:43:21 10° WNW 13:47:41 68° N 13:52:02 10° E daylight
27 Feb - 15:24:38 10° WNW 15:28:53 54° SSW 15:33:08 10° SE daylight
27 Feb - 17:07:13 10° WSW 17:09:24 14° SW 17:11:35 10° SSW daylight
28 Feb - 08:52:53 10° S 08:55:53 18° SE 08:58:54 10° E daylight
28 Feb - 10:32:13 10° WSW 10:36:32 67° SSE 10:40:51 10° ENE daylight
28 Feb - 12:13:30 10° W 12:17:50 64° N 12:22:09 10° ENE daylight
28 Feb - 13:54:54 10° WNW 13:59:16 81° NNE 14:03:37 10° ESE daylight
28 Feb - 15:36:17 10° W 15:40:15 35° SSW 15:44:13 10° SSE daylight
29 Feb - 09:03:19 10° SSW 09:07:07 29° SE 09:10:55 10° E daylight
29 Feb - 10:43:39 10° WSW 10:48:02 89° N 10:52:23 10° ENE daylight
29 Feb - 12:25:06 10° W 12:29:26 63° N 12:33:44 10° E daylight
29 Feb - 14:06:25 10° WNW 14:10:46 77° SSW 14:15:06 10° ESE daylight
29 Feb - 15:48:09 10° W 15:51:31 22° SW 15:54:53 10° SSE daylight
01 Mar - 07:36:53 10° SSE 07:38:02 11° SE 07:39:10 10° ESE daylight
01 Mar - 09:14:14 10° SW 09:18:27 46° SSE 09:22:37 10° ENE daylight
01 Mar - 10:55:12 10° W 10:59:34 72° N 11:03:54 10° ENE daylight
01 Mar - 12:36:40 10° WNW 12:41:01 68° N 12:45:20 10° E daylight
01 Mar - 14:17:57 10° WNW 14:22:12 53° SSW 14:26:25 10° SE daylight
01 Mar - 16:00:39 10° WSW 16:02:41 13° SW 16:04:42 10° SSW daylight
02 Mar - 07:46:03 10° S 07:49:09 19° SE 07:52:15 10° E daylight
02 Mar - 09:25:28 10° WSW 09:29:50 69° SSE 09:34:10 10° ENE daylight
02 Mar - 11:06:47 10° W 11:11:08 64° N 11:15:27 10° ENE daylight
02 Mar - 12:48:11 10° WNW 12:52:33 82° NNE 12:56:54 10° ESE daylight
02 Mar - 14:29:35 10° W 14:33:31 34° SW 14:37:27 10° SSE daylight
